TimeCST,TemperatureF,Dew PointF,Humidity,Sea Level PressureIn,VisibilityMPH,Wind Direction,Wind SpeedMPH,Gust SpeedMPH,PrecipitationIn,Events,Conditions,WindDirDegrees,DateUTC
12:15 AM,21.2,14.0,74,30.46,10.0,WSW,8.1,-,N/A,,Clear,250,2013-11-13 06:15:00
12:35 AM,21.2,14.0,74,30.46,10.0,WSW,5.8,-,N/A,,Clear,250,2013-11-13 06:35:00
12:55 AM,21.2,14.0,74,30.46,10.0,WSW,6.9,-,N/A,,Clear,250,2013-11-13 06:55:00
1:15 AM,21.2,14.0,74,30.46,10.0,SW,3.5,-,N/A,,Clear,230,2013-11-13 07:15:00
1:35 AM,19.4,14.0,80,30.46,10.0,SW,3.5,-,N/A,,Clear,230,2013-11-13 07:35:00
1:55 AM,19.4,14.0,80,30.45,10.0,SSW,4.6,-,N/A,,Clear,210,2013-11-13 07:55:00
2:15 AM,19.4,14.0,80,30.45,10.0,SW,5.8,-,N/A,,Clear,220,2013-11-13 08:15:00
2:35 AM,19.4,14.0,80,30.43,10.0,SW,6.9,-,N/A,,Clear,220,2013-11-13 08:35:00
2:55 AM,19.4,14.0,80,30.42,10.0,SW,6.9,-,N/A,,Clear,230,2013-11-13 08:55:00
3:15 AM,19.4,14.0,80,30.41,10.0,SW,6.9,-,N/A,,Clear,220,2013-11-13 09:15:00
3:35 AM,19.4,14.0,80,30.41,10.0,SW,8.1,-,N/A,,Clear,230,2013-11-13 09:35:00
3:55 AM,19.4,14.0,80,30.40,10.0,SW,8.1,-,N/A,,Clear,230,2013-11-13 09:55:00
4:15 AM,19.4,12.2,74,30.40,10.0,SW,9.2,-,N/A,,Clear,230,2013-11-13 10:15:00
4:35 AM,19.4,12.2,74,30.39,10.0,SW,9.2,-,N/A,,Clear,230,2013-11-13 10:35:00
4:55 AM,19.4,12.2,74,30.38,10.0,SW,8.1,-,N/A,,Clear,230,2013-11-13 10:55:00
5:15 AM,19.4,12.2,74,30.37,10.0,SW,6.9,-,N/A,,Clear,230,2013-11-13 11:15:00
5:35 AM,19.4,12.2,74,30.36,10.0,SW,4.6,-,N/A,,Clear,230,2013-11-13 11:35:00
5:55 AM,19.4,14.0,80,30.35,10.0,SW,6.9,-,N/A,,Clear,230,2013-11-13 11:55:00
6:15 AM,19.4,14.0,80,30.34,10.0,SW,5.8,-,N/A,,Clear,230,2013-11-13 12:15:00
6:35 AM,19.4,14.0,80,30.34,10.0,SW,6.9,-,N/A,,Clear,220,2013-11-13 12:35:00
6:55 AM,19.4,14.0,80,30.32,10.0,SW,6.9,-,N/A,,Clear,220,2013-11-13 12:55:00
7:15 AM,19.4,14.0,80,30.31,10.0,SSW,6.9,-,N/A,,Clear,210,2013-11-13 13:15:00
7:35 AM,19.4,14.0,80,30.30,10.0,SSW,9.2,-,N/A,,Clear,210,2013-11-13 13:35:00
7:55 AM,21.2,14.0,74,30.30,10.0,SW,9.2,-,N/A,,Clear,220,2013-11-13 13:55:00
8:15 AM,21.2,14.0,74,30.29,10.0,SW,10.4,-,N/A,,Clear,220,2013-11-13 14:15:00
8:35 AM,24.8,15.8,69,30.28,10.0,SW,10.4,-,N/A,,Clear,220,2013-11-13 14:35:00
8:55 AM,24.8,14.0,64,30.26,10.0,SW,11.5,-,N/A,,Clear,220,2013-11-13 14:55:00
9:15 AM,26.6,14.0,59,30.26,10.0,SW,13.8,-,N/A,,Clear,230,2013-11-13 15:15:00
9:35 AM,28.4,14.0,55,30.24,10.0,SW,11.5,20.7,N/A,,Clear,230,2013-11-13 15:35:00
9:55 AM,30.2,14.0,51,30.23,10.0,SW,13.8,-,N/A,,Clear,220,2013-11-13 15:55:00
10:15 AM,30.2,14.0,51,30.23,10.0,SW,11.5,-,N/A,,Clear,230,2013-11-13 16:15:00
10:35 AM,32.0,14.0,48,30.21,10.0,SW,15.0,18.4,N/A,,Clear,220,2013-11-13 16:35:00
10:55 AM,33.8,15.8,48,30.19,10.0,SW,15.0,-,N/A,,Clear,230,2013-11-13 16:55:00
11:15 AM,35.6,15.8,44,30.17,10.0,SW,15.0,21.9,N/A,,Clear,220,2013-11-13 17:15:00
11:35 AM,37.4,17.6,45,30.15,10.0,SW,15.0,19.6,N/A,,Clear,230,2013-11-13 17:35:00
11:55 AM,41.0,19.4,42,30.12,10.0,SW,19.6,26.5,N/A,,Clear,230,2013-11-13 17:55:00
12:15 PM,42.8,19.4,39,30.11,10.0,SW,16.1,26.5,N/A,,Clear,230,2013-11-13 18:15:00
12:35 PM,42.8,19.4,39,30.09,10.0,WSW,17.3,27.6,N/A,,Clear,240,2013-11-13 18:35:00
12:55 PM,44.6,21.2,39,30.08,10.0,SW,20.7,27.6,N/A,,Clear,230,2013-11-13 18:55:00
1:15 PM,44.6,23.0,43,30.06,10.0,WSW,18.4,25.3,N/A,,Clear,240,2013-11-13 19:15:00
1:35 PM,44.6,23.0,43,30.05,10.0,SW,19.6,26.5,N/A,,Clear,230,2013-11-13 19:35:00
1:55 PM,44.6,23.0,43,30.03,10.0,SW,21.9,26.5,N/A,,Clear,230,2013-11-13 19:55:00
2:15 PM,44.6,23.0,43,30.01,10.0,SW,17.3,25.3,N/A,,Clear,230,2013-11-13 20:15:00
2:35 PM,44.6,23.0,43,30.00,10.0,SW,19.6,28.8,N/A,,Clear,230,2013-11-13 20:35:00
2:55 PM,44.6,23.0,43,30.00,10.0,SW,15.0,26.5,N/A,,Clear,230,2013-11-13 20:55:00
3:15 PM,44.6,24.8,46,29.99,10.0,SW,17.3,26.5,N/A,,Clear,230,2013-11-13 21:15:00
3:35 PM,44.6,24.8,46,29.97,10.0,SW,21.9,27.6,N/A,,Clear,230,2013-11-13 21:35:00
3:55 PM,44.6,24.8,46,29.96,10.0,SW,21.9,27.6,N/A,,Clear,230,2013-11-13 21:55:00
4:15 PM,42.8,24.8,49,29.95,10.0,SW,13.8,27.6,N/A,,Clear,230,2013-11-13 22:15:00
4:35 PM,42.8,24.8,49,29.95,10.0,SW,12.7,25.3,N/A,,Clear,230,2013-11-13 22:35:00
4:55 PM,41.0,24.8,53,29.96,10.0,SW,12.7,18.4,N/A,,Clear,230,2013-11-13 22:55:00
5:15 PM,41.0,24.8,53,29.96,10.0,SW,18.4,23.0,N/A,,Clear,230,2013-11-13 23:15:00
5:35 PM,41.0,24.8,53,29.97,10.0,SW,13.8,19.6,N/A,,Clear,230,2013-11-13 23:35:00
5:55 PM,39.2,24.8,56,29.97,10.0,SW,13.8,19.6,N/A,,Clear,230,2013-11-13 23:55:00
6:15 PM,39.2,24.8,56,29.96,10.0,SW,13.8,20.7,N/A,,Clear,230,2013-11-14 00:15:00
6:35 PM,39.2,24.8,56,29.96,10.0,SW,13.8,20.7,N/A,,Clear,230,2013-11-14 00:35:00
6:55 PM,37.4,24.8,60,29.95,10.0,SW,17.3,26.5,N/A,,Clear,230,2013-11-14 00:55:00
7:15 PM,37.4,23.0,56,29.97,10.0,WSW,16.1,27.6,N/A,,Clear,240,2013-11-14 01:15:00
7:35 PM,37.4,23.0,56,29.97,10.0,WSW,15.0,19.6,N/A,,Clear,240,2013-11-14 01:35:00
7:55 PM,37.4,23.0,56,29.97,10.0,WSW,9.2,19.6,N/A,,Clear,240,2013-11-14 01:55:00
8:15 PM,37.4,21.2,52,29.96,10.0,SW,11.5,16.1,N/A,,Clear,230,2013-11-14 02:15:00
8:35 PM,37.4,19.4,48,29.96,10.0,WSW,11.5,16.1,N/A,,Clear,240,2013-11-14 02:35:00
8:55 PM,37.4,19.4,48,29.96,10.0,SW,10.4,17.3,N/A,,Clear,230,2013-11-14 02:55:00
9:15 PM,35.6,17.6,48,29.95,10.0,SW,12.7,16.1,N/A,,Clear,230,2013-11-14 03:15:00
9:35 PM,35.6,17.6,48,29.95,10.0,SW,13.8,-,N/A,,Clear,230,2013-11-14 03:35:00
9:55 PM,35.6,17.6,48,29.95,10.0,SW,11.5,-,N/A,,Clear,230,2013-11-14 03:55:00
10:15 PM,35.6,17.6,48,29.95,10.0,WSW,11.5,17.3,N/A,,Clear,240,2013-11-14 04:15:00
10:35 PM,35.6,15.8,44,29.94,10.0,SW,11.5,-,N/A,,Clear,230,2013-11-14 04:35:00
10:55 PM,35.6,15.8,44,29.94,10.0,SW,8.1,16.1,N/A,,Clear,230,2013-11-14 04:55:00
11:15 PM,35.6,15.8,44,29.93,10.0,SW,9.2,-,N/A,,Clear,230,2013-11-14 05:15:00
11:35 PM,35.6,15.8,44,29.93,10.0,SW,9.2,-,N/A,,Clear,230,2013-11-14 05:35:00
11:55 PM,35.6,17.6,48,29.93,10.0,SW,9.2,-,N/A,,Clear,230,2013-11-14 05:55:00